Weather History for Dutch Harbor, AK

Change the Weather History Date:

Wednesday, January 23, 2013

  Actual Average Record
Temperature  
Mean Temperature 34 °F -  
Max Temperature 37 °F 38 °F 55 °F (1997)
Min Temperature 32 °F 28 °F 15 °F (1989)
Degree Days  
Heating Degree Days 30    
Moisture  
Dew Point 30 °F    
Average Humidity 84    
Maximum Humidity 93    
Minimum Humidity 64    
Precipitation  
Precipitation 0.01 in - - ()
Sea Level Pressure  
Sea Level Pressure 29.32 in    
Wind  
Wind Speed 6 mph (NW)    
Max Wind Speed 20 mph    
Max Gust Speed 26 mph    
Visibility 9 miles    
Events Rain , Snow    
Averages and records for this station are not official NWS values.
T = Trace of Precipitation, MM = Missing Value Source: NWS Daily Summary

Daily Weather History Graph

Daily Weather History Graph

Search for Another Location

Airport:

Trip Planner

Search our weather history database for the weather conditions in past years. The results will help you decide how hot, cold, wet, or windy it might be!

Date:

Astronomy

Jan. 23, 2013 Rise Set
Actual Time 10:05 AM AKST 6:31 PM AKST
Civil Twilight 9:25 AM AKST 7:11 PM AKST
Nautical Twilight 8:42 AM AKST 7:54 PM AKST
Astronomical Twilight 8:00 AM AKST 8:36 PM AKST
Moon 3:44 PM AKST (1/23) 7:35 AM AKST (1/23)
Length of Visible Light 9h 45m
Length of Day
8h 25m
Waxing Gibbous, 90% of the Moon is Illuminated
Jan 23
Waxing Gibbous
Jan 26
Full
Feb 3
Last Quarter
Feb 9
New
Feb 17
First Quarter

Hourly Weather History & Observations

Time (AKST) Temp. Windchill Dew Point Humidity Pressure Visibility Wind Dir Wind Speed Gust Speed Precip Events Conditions
12:56 AM 35.1 °F - 24.1 °F 64% 29.34 in 10.0 mi Calm Calm - 0.00 in   Overcast
1:21 AM 35.6 °F - 26.6 °F 70% 29.32 in 10.0 mi Calm Calm - N/A   Overcast
1:49 AM 33.8 °F 28.6 °F 24.8 °F 70% 29.31 in 10.0 mi West 5.8 mph - 0.00 in Rain Light Rain
1:56 AM 34.0 °F 28.0 °F 25.0 °F 70% 29.32 in 10.0 mi West 6.9 mph - 0.00 in   Overcast
2:14 AM 33.8 °F 27.7 °F 26.6 °F 75% 29.30 in 10.0 mi West 6.9 mph - N/A   Overcast
2:56 AM 34.0 °F 25.5 °F 28.0 °F 79% 29.31 in 10.0 mi West 11.5 mph - N/A   Overcast
3:56 AM 33.1 °F 28.7 °F 27.0 °F 78% 29.29 in 10.0 mi South 4.6 mph - N/A   Overcast
4:56 AM 33.1 °F 26.1 °F 25.0 °F 72% 29.28 in 10.0 mi SSW 8.1 mph - 0.00 in   Overcast
5:20 AM 33.8 °F 27.7 °F 24.8 °F 70% 29.26 in 10.0 mi SW 6.9 mph - N/A   Overcast
5:32 AM 33.8 °F - 28.4 °F 81% 29.25 in 9.0 mi Calm Calm - 0.00 in Rain Light Rain
5:44 AM 33.8 °F 30.8 °F 30.2 °F 87% 29.25 in 10.0 mi South 3.5 mph - 0.00 in Rain Light Rain
5:56 AM 32.0 °F 27.5 °F 28.0 °F 85% 29.27 in 8.0 mi South 4.6 mph - 0.00 in   Overcast
6:42 AM 32.0 °F - 28.4 °F 87% 29.25 in 10.0 mi Calm Calm - 0.00 in   Overcast
6:56 AM 32.0 °F - 28.9 °F 88% 29.27 in 7.0 mi Calm Calm - 0.00 in Snow Light Snow
7:56 AM 34.0 °F - 30.0 °F 85% 29.26 in 7.0 mi Calm Calm - 0.00 in Snow Light Snow
8:56 AM 35.1 °F 29.3 °F 30.0 °F 82% 29.26 in 7.0 mi North 6.9 mph - 0.00 in Snow Light Snow
9:56 AM 35.1 °F 32.2 °F 30.0 °F 82% 29.28 in 7.0 mi Variable 3.5 mph - 0.00 in Snow Light Snow
10:09 AM 35.6 °F 32.8 °F 30.2 °F 81% 29.26 in 6.0 mi Variable 3.5 mph - 0.00 in Snow Light Snow
10:56 AM 34.0 °F 28.0 °F 30.9 °F 89% 29.29 in 6.0 mi West 6.9 mph - 0.01 in Snow Light Snow
11:56 AM 35.1 °F 31.0 °F 30.9 °F 85% 29.29 in 6.0 mi Variable 4.6 mph - 0.00 in Snow Light Snow
12:10 PM 35.6 °F 28.6 °F 32.0 °F 87% 29.28 in 10.0 mi NW 9.2 mph - 0.00 in   Overcast
12:56 PM 35.1 °F 30.1 °F 32.0 °F 89% 29.29 in 10.0 mi Variable 5.8 mph - 0.00 in   Overcast
1:56 PM 35.1 °F 32.2 °F 30.9 °F 85% 29.30 in 10.0 mi WSW 3.5 mph - N/A   Overcast
2:56 PM 35.1 °F 29.3 °F 30.9 °F 85% 29.29 in 10.0 mi SSW 6.9 mph - N/A   Overcast
3:56 PM 36.0 °F - 30.0 °F 79% 29.30 in 10.0 mi Calm Calm - N/A   Overcast
4:56 PM 37.0 °F 29.8 °F 30.9 °F 79% 29.31 in 10.0 mi WNW 10.4 mph - N/A   Overcast
5:56 PM 36.0 °F 29.6 °F 32.0 °F 86% 29.34 in 9.0 mi NW 8.1 mph - N/A   Overcast
6:40 PM 35.6 °F 29.9 °F 32.0 °F 87% 29.33 in 6.0 mi NNW 6.9 mph - N/A   Overcast
6:56 PM 36.0 °F 28.5 °F 33.1 °F 89% 29.36 in 6.0 mi NNW 10.4 mph - N/A   Overcast
7:17 PM 35.6 °F 26.6 °F 33.8 °F 93% 29.34 in 9.0 mi NNW 13.8 mph - 0.00 in   Overcast
7:47 PM 35.6 °F 25.5 °F 33.8 °F 93% 29.35 in 10.0 mi North 17.3 mph 23.0 mph 0.00 in   Overcast
7:56 PM 36.0 °F 28.5 °F 33.1 °F 89% 29.37 in 10.0 mi NNW 10.4 mph - 0.00 in   Overcast
8:56 PM 36.0 °F 26.3 °F 33.1 °F 89% 29.39 in 8.0 mi NNW 16.1 mph - 0.00 in   Overcast
9:13 PM 35.6 °F 25.9 °F 33.8 °F 93% 29.38 in 8.0 mi NNW 16.1 mph - 0.00 in   Overcast
9:38 PM 35.6 °F 26.2 °F 33.8 °F 93% 29.39 in 9.0 mi NNW 15.0 mph 23.0 mph 0.00 in   Overcast
9:56 PM 36.0 °F 25.6 °F 33.1 °F 89% 29.42 in 6.0 mi NNW 18.4 mph 26.5 mph 0.00 in   Overcast
10:22 PM 35.6 °F 25.2 °F 33.8 °F 93% 29.42 in 5.0 mi NNW 18.4 mph 25.3 mph 0.00 in Rain Light Rain
10:56 PM 36.0 °F 29.6 °F 33.1 °F 89% 29.45 in 10.0 mi NW 8.1 mph - 0.00 in Rain Light Rain
11:13 PM 35.6 °F 27.1 °F 32.0 °F 87% 29.44 in 10.0 mi NNW 12.7 mph 19.6 mph 0.00 in Rain Light Rain
11:26 PM 35.6 °F 24.8 °F 33.8 °F 93% 29.44 in 10.0 mi North 19.6 mph 24.2 mph 0.00 in Rain Light Rain
11:56 PM 35.1 °F 24.5 °F 32.0 °F 89% 29.47 in 10.0 mi North 18.4 mph 21.9 mph 0.00 in Rain Light Rain